Location: Seattle
(47.6064°N, 122.3308°W)
Time: 19:42:22
(UTC-07:00)

ISS - Pass Details

Date: 09 April 2016
Orbit: 411 x 421 km, 51.6° (Epoch: 16 October)

Event Time Altitude Azimuth Distance (km) Brightness Sun altitude
Rises 20:16:58 0° 293° (WNW) 2,347 2.8 -5.0°
Reaches altitude 10° 20:19:05 10° 289° (WNW) 1,482 1.0 -5.3°
Maximum altitude 20:22:21 56° 210° (SSW) 495 -3.3 -5.8°
Drops below altitude 10° 20:25:36 10° 132° (SE) 1,477 -1.6 -6.3°
Enters shadow 20:26:09 - 130° (SE) 1,703 -1.3 -6.4°
Sets 20:27:42 0° 128° (SE) 2,338 - -6.7°
